User: anonymous   Login
Location: Unspecified
(0.0000°N, 0.0000°E)
Time: 20:52:13
(UTC+00:00)
Language:

OFEQ 10 - Orbit

View from above orbital plane
View from above orbital plane
View from above satellite
View from above satellite

Ground track
Ground track

The orbit data is extracted from the following two-line orbital elements,

1 39650U 14019A   18117.43385641 0.00000400  00000-0  19840-4 0    03
2 39650 140.9177  17.4308 0005146 205.1333 154.8660 15.16862529    05
Epoch (UTC): 27 April 2018 10:24:45
Eccentricity: 0.0005146
inclination: 140.9177°
perigee height: 512 km
apogee height: 519 km
right ascension of ascending node: 17.4308°
argument of perigee: 205.1333°
revolutions per day: 15.16862529
mean anomaly at epoch: 154.8660°
orbit number at epoch: 0

The dashed part of the orbit path shows where the satellite is in the earth's shadow,  

DLR